Temp
-16 -16 -16 -16 -16 -16 -17 -17 -17 -16 -15 -16 -16 -16 -16 -16 -16 -16 -15 -16 -16 -16 -17 -19 -21 -22 -22 -23 -23 -23 -23 -23 -22 -22 -21 -21 -19 -18
-16 -16 -16 -17 -17 -17 -17 -17 -17 -17 -16 -16 -16 -16 -16 -16 -16 -16 -17 -19 -20 -22 -23 -24 -24 -23 -24 -24 -24 -25 -25 -25 -25 -24 -24 -24 -23 -22
-17 -17 -17 -17 -17 -17 -17 -18 -18 -17 -17 -16 -16 -16 -16 -17 -19 -21 -22 -23 -24 -26 -27 -26 -26 -26 -26 -26 -26 -26 -26 -25 -25 -25 -25 -25 -25 -25
-17 -17 -17 -18 -18 -18 -18 -18 -17 -17 -18 -17 -16 -17 -19 -22 -23 -23 -25 -26 -26 -27 -26 -27 -27 -26 -27 -27 -27 -27 -27 -27 -26 -26 -25 -25 -25 -25
-18 -18 -18 -18 -18 -18 -17 -17 -17 -17 -18 -18 -18 -21 -23 -24 -25 -26 -26 -26 -26 -26 -26 -26 -26 -27 -27 -27 -27 -27 -27 -27 -27 -27 -27 -27 -26 -26
-18 -18 -18 -18 -18 -17 -17 -17 -17 -17 -19 -21 -23 -24 -25 -25 -26 -25 -26 -26 -26 -26 -26 -26 -26 -26 -26 -26 -27 -27 -27 -27 -27 -27 -27 -27 -27 -26
-18 -18 -18 -18 -18 -17 -17 -17 -18 -21 -22 -24 -25 -25 -25 -25 -26 -26 -25 -25 -27 -25 -25 -26 -25 -26 -26 -26 -26 -26 -26 -27 -27 -28 -28 -28 -28 -28
-18 -18 -18 -18 -18 -18 -18 -19 -23 -24 -25 -25 -25 -25 -25 -26 -25 -25 -25 -26 -26 -26 -25 -27 -26 -26 -26 -26 -26 -26 -26 -27 -27 -27 -27 -28 -29 -29
-19 -19 -18 -18 -18 -18 -20 -23 -25 -26 -26 -25 -25 -25 -25 -25 -25 -26 -26 -26 -26 -25 -24 -26 -26 -26 -26 -26 -26 -26 -26 -27 -28 -28 -27 -28 -28 -29
-18 -18 -19 -19 -19 -21 -23 -24 -26 -26 -26 -26 -25 -25 -25 -25 -25 -25 -25 -26 -26 -26 -24 -26 -26 -26 -26 -26 -26 -27 -27 -27 -28 -28 -28 -28 -29 -29
-18 -19 -19 -19 -21 -23 -24 -25 -26 -26 -26 -26 -25 -25 -26 -26 -25 -25 -25 -25 -26 -27 -26 -26 -26 -26 -27 -26 -27 -27 -27 -27 -28 -28 -28 -28 -29 -29
-19 -20 -20 -22 -24 -25 -25 -25 -26 -26 -26 -26 -26 -26 -26 -26 -25 -25 -25 -26 -25 -25 -26 -26 -27 -26 -28 -27 -28 -28 -28 -28 -29 -29 -29 -29 -29 -29
-20 -21 -22 -25 -25 -26 -26 -26 -26 -26 -26 -26 -26 -26 -26 -26 -26 -26 -25 -25 -25 -25 -25 -26 -26 -27 -27 -28 -28 -28 -28 -28 -29 -29 -28 -28 -29 -29
-21 -23 -25 -25 -26 -26 -26 -26 -26 -26 -26 -26 -26 -26 -26 -26 -26 -26 -25 -26 -25 -24 -25 -26 -26 -27 -27 -28 -28 -28 -28 -28 -28 -28 -28 -28 -29 -29
-24 -25 -26 -26 -26 -26 -26 -26 -26 -26 -26 -26 -26 -26 -26 -26 -27 -27 -26 -26 -26 -25 -26 -26 -27 -26 -27 -27 -27 -27 -27 -28 -28 -28 -29 -29 -29 -29
-25 -26 -26 -26 -26 -26 -26 -26 -26 -26 -26 -26 -27 -27 -27 -27 -27 -27 -26 -26 -26 -26 -26 -26 -26 -26 -27 -27 -27 -27 -27 -26 -27 -27 -27 -27 -27 -28
-26 -26 -26 -26 -26 -26 -26 -26 -26 -26 -27 -27 -27 -27 -27 -27 -27 -27 -26 -26 -26 -26 -26 -26 -26 -26 -26 -26 -27 -27 -26 -26 -26 -26 -27 -27 -27 -27
-26 -26 -26 -26 -26 -26 -27 -27 -26 -27 -27 -28 -28 -28 -27 -27 -28 -27 -27 -26 -27 -26 -26 -26 -26 -26 -27 -27 -26 -26 -26 -26 -26 -26 -26 -27 -27 -27
-26 -26 -26 -26 -26 -26 -27 -27 -27 -28 -28 -28 -28 -28 -28 -28 -28 -27 -27 -27 -27 -26 -27 -26 -26 -26 -26 -26 -26 -26 -26 -26 -25 -26 -26 -26 -26 -26
-26 -26 -26 -26 -26 -27 -27 -27 -27 -28 -28 -28 -28 -28 -29 -28 -28 -28 -28 -28 -27 -27 -27 -27 -26 -26 -26 -25 -25 -26 -25 -26 -25 -26 -26 -27 -26 -26
-26 -26 -26 -26 -26 -26 -27 -27 -27 -28 -28 -28 -29 -29 -29 -29 -29 -29 -29 -28 -28 -27 -27 -27 -26 -26 -26 -25 -26 -25 -25 -25 -25 -25 -26 -26 -26 -26
-25 -25 -26 -26 -26 -26 -27 -28 -28 -28 -28 -29 -29 -29 -29 -29 -29 -29 -29 -29 -28 -28 -27 -27 -26 -26 -26 -26 -26 -25 -25 -25 -25 -25 -25 -26 -26 -26
-25 -25 -26 -26 -26 -27 -28 -28 -29 -29 -29 -29 -29 -29 -29 -29 -29 -29 -29 -29 -29 -28 -27 -27 -27 -26 -26 -26 -26 -25 -25 -25 -25 -25 -25 -25 -25 -25
Height
5635 5628 5620 5611 5603 5593 5584 5575 5566 5565 5569 5553 5539 5525 5508 5492 5477 5460 5447 5433 5418 5405 5394 5384 5374 5366 5360 5355 5352 5351 5352 5354 5356 5360 5366 5372 5380 5389
5621 5614 5604 5595 5586 5576 5566 5556 5544 5533 5532 5530 5516 5494 5478 5459 5440 5419 5401 5385 5374 5364 5353 5342 5334 5329 5323 5318 5316 5316 5318 5319 5323 5328 5333 5338 5342 5350
5606 5598 5589 5579 5570 5559 5547 5536 5523 5507 5495 5508 5482 5468 5448 5423 5404 5385 5366 5353 5343 5336 5327 5318 5310 5303 5297 5293 5289 5287 5286 5288 5293 5297 5303 5308 5313 5318
5591 5583 5573 5563 5552 5540 5527 5514 5499 5481 5460 5451 5450 5431 5409 5391 5375 5358 5346 5334 5324 5317 5309 5299 5292 5288 5282 5276 5271 5267 5265 5264 5265 5268 5273 5283 5286 5291
5576 5567 5557 5546 5534 5520 5505 5489 5472 5455 5433 5411 5403 5390 5379 5362 5353 5341 5331 5322 5312 5303 5294 5288 5280 5274 5269 5263 5258 5254 5250 5249 5250 5250 5253 5257 5260 5265
5561 5551 5539 5526 5512 5498 5481 5463 5444 5425 5405 5386 5373 5362 5352 5345 5335 5328 5322 5309 5301 5290 5282 5277 5268 5261 5254 5248 5244 5241 5239 5238 5238 5238 5239 5240 5242 5243
5545 5533 5520 5505 5489 5471 5453 5435 5413 5394 5380 5368 5357 5345 5337 5330 5324 5316 5308 5301 5291 5280 5276 5270 5260 5253 5244 5238 5233 5229 5226 5224 5224 5224 5225 5226 5226 5224
5528 5515 5500 5483 5466 5448 5428 5407 5385 5367 5359 5350 5343 5335 5328 5320 5314 5307 5299 5292 5287 5273 5267 5263 5250 5245 5236 5230 5224 5220 5217 5213 5210 5209 5209 5209 5210 5208
5509 5494 5479 5460 5440 5423 5406 5388 5373 5355 5344 5339 5333 5325 5318 5311 5306 5301 5293 5285 5276 5267 5260 5258 5243 5236 5227 5220 5213 5211 5209 5204 5200 5196 5195 5194 5194 5194
5489 5471 5455 5439 5418 5399 5386 5375 5360 5348 5339 5331 5324 5317 5311 5305 5298 5292 5285 5281 5273 5261 5250 5247 5233 5227 5218 5209 5206 5203 5199 5194 5190 5187 5184 5183 5182 5181
5470 5449 5430 5415 5396 5380 5369 5359 5350 5340 5332 5324 5316 5309 5304 5297 5290 5285 5280 5273 5268 5258 5245 5238 5228 5222 5212 5206 5201 5195 5190 5185 5181 5178 5176 5175 5173 5173
5450 5429 5409 5390 5374 5363 5354 5347 5340 5333 5327 5319 5313 5306 5299 5292 5285 5278 5271 5266 5259 5255 5243 5236 5225 5216 5212 5203 5198 5192 5187 5182 5178 5174 5171 5168 5166 5165
5428 5408 5389 5374 5361 5351 5344 5338 5332 5325 5319 5314 5308 5302 5296 5289 5282 5274 5266 5258 5254 5249 5237 5230 5222 5213 5206 5202 5196 5191 5185 5180 5175 5168 5164 5160 5157 5153
5407 5387 5373 5360 5350 5342 5336 5331 5325 5319 5313 5308 5302 5296 5291 5284 5278 5269 5262 5255 5248 5243 5236 5228 5220 5214 5208 5202 5196 5191 5182 5174 5167 5161 5155 5150 5144 5139
5386 5371 5358 5349 5341 5334 5329 5324 5318 5313 5308 5302 5296 5289 5283 5278 5273 5266 5258 5252 5244 5239 5234 5227 5220 5214 5209 5203 5196 5187 5179 5171 5162 5154 5149 5142 5132 5124
5373 5360 5349 5341 5334 5328 5322 5317 5312 5306 5300 5295 5290 5284 5278 5272 5266 5261 5255 5249 5244 5237 5233 5227 5221 5215 5210 5202 5193 5186 5178 5171 5164 5155 5146 5135 5124 5110
5358 5349 5341 5335 5329 5322 5316 5309 5304 5299 5294 5288 5283 5278 5272 5266 5259 5254 5249 5243 5240 5236 5231 5226 5221 5216 5211 5204 5197 5189 5183 5177 5169 5159 5148 5138 5126 5111
5349 5342 5336 5330 5324 5318 5312 5305 5299 5293 5288 5282 5276 5271 5265 5260 5255 5249 5244 5239 5236 5232 5228 5225 5221 5216 5212 5207 5202 5194 5188 5183 5177 5169 5159 5149 5140 5130
5342 5336 5330 5325 5319 5313 5307 5300 5294 5288 5282 5277 5271 5265 5259 5254 5250 5245 5240 5235 5232 5229 5226 5223 5221 5218 5215 5209 5205 5198 5194 5189 5184 5178 5172 5166 5160 5152
5337 5332 5326 5320 5314 5307 5301 5294 5287 5281 5276 5270 5265 5261 5256 5251 5246 5241 5236 5232 5229 5226 5223 5222 5220 5218 5216 5213 5208 5204 5199 5195 5192 5188 5184 5181 5177 5173
5335 5329 5323 5317 5310 5302 5295 5287 5280 5274 5269 5265 5261 5258 5254 5249 5243 5238 5233 5229 5226 5224 5222 5221 5220 5218 5218 5215 5212 5209 5205 5201 5199 5197 5195 5193 5192 5189
5333 5327 5321 5314 5306 5297 5288 5281 5274 5268 5265 5262 5260 5257 5253 5249 5243 5237 5232 5227 5225 5223 5221 5220 5220 5220 5220 5219 5216 5213 5210 5207 5206 5205 5204 5203 5202 5202
5331 5326 5319 5311 5302 5293 5286 5280 5274 5269 5266 5264 5261 5257 5253 5247 5242 5236 5231 5227 5224 5222 5221 5220 5220 5221 5222 5222 5220 5217 5216 5214 5213 5212 5212 5213 5212 5212
Wind_Speed
63 64 68 71 69 71 73 76 79 80 77 84 91 96 103 109 115 121 124 128 129 128 123 114 108 104 102 101 101 100 98 96 96 96 95 97 99 102
65 69 70 70 71 74 77 82 87 91 90 92 98 106 112 119 124 127 124 118 111 103 96 91 89 87 85 86 86 88 90 89 88 86 85 85 87 89
70 69 70 72 75 79 83 88 92 99 104 98 107 112 118 121 114 107 102 95 82 67 62 61 60 59 60 60 62 66 72 77 80 81 79 78 78 79
69 69 72 75 79 84 89 95 100 105 111 115 115 114 109 98 89 84 68 61 62 60 57 57 57 54 51 49 48 46 46 53 61 67 71 72 74 76
69 72 75 79 85 90 94 99 106 111 116 118 112 99 85 76 60 54 55 50 49 51 53 53 53 51 50 47 44 39 37 38 39 44 48 53 59 63
70 73 78 86 92 97 101 107 113 115 110 103 91 78 62 51 48 42 45 48 46 48 48 46 47 43 43 44 43 44 41 37 33 33 37 41 47 55
73 78 87 92 97 104 110 114 112 102 93 82 70 54 49 41 44 41 36 33 35 40 38 39 40 39 40 38 33 31 32 35 38 39 38 37 41 46
78 83 92 100 106 110 113 107 94 85 76 63 49 43 40 41 35 33 33 32 30 39 38 28 39 37 41 39 39 36 31 31 30 32 32 34 39 40
84 91 99 105 111 112 103 87 75 66 59 47 38 41 37 36 33 31 30 30 34 37 37 29 40 41 41 37 37 32 28 28 28 28 31 32 33 31
92 100 105 109 109 100 86 72 55 50 45 38 42 37 34 33 34 32 32 28 30 36 41 38 43 39 33 33 32 25 27 32 30 29 30 29 27 27
98 105 110 110 97 84 71 53 46 41 35 41 38 35 35 35 35 34 33 34 30 33 42 38 38 31 28 29 26 30 29 24 23 24 25 29 30 30
103 109 108 94 79 69 54 44 36 33 38 34 34 34 35 35 37 37 37 35 36 34 36 33 30 27 19 25 22 20 22 21 12 15 16 17 19 21
108 105 89 75 67 52 44 36 35 37 30 33 31 31 32 33 35 37 38 38 37 36 35 32 26 25 23 19 23 24 22 22 24 27 26 25 25 28
102 84 73 64 50 43 36 34 33 30 32 30 30 32 32 32 30 34 34 34 36 36 31 30 23 21 21 22 24 26 28 28 33 28 21 25 34 34
81 71 62 48 41 36 33 32 30 31 30 30 34 32 30 29 29 30 33 29 31 32 27 25 20 19 19 25 27 28 30 28 30 24 23 27 26 32
67 60 45 39 34 33 32 31 32 33 32 28 25 25 26 29 31 31 30 25 21 27 23 18 14 16 21 28 32 34 32 28 25 25 23 26 28 28
58 44 36 31 33 32 35 35 34 30 30 30 30 31 33 33 34 32 32 25 18 17 17 15 10 13 18 26 30 30 22 24 27 27 28 24 24 20
45 32 29 32 30 31 30 30 33 32 33 33 34 33 31 29 28 28 29 23 16 15 11 11 6 11 19 23 26 22 19 20 22 26 30 31 26 27
34 28 30 30 29 30 31 32 32 33 32 32 31 29 26 25 24 24 26 22 15 11 7 8 4 6 13 20 25 18 15 18 19 23 26 30 33 37
28 28 29 29 31 32 34 34 34 34 33 30 27 24 22 23 25 25 22 18 12 10 5 6 2 3 10 14 20 15 13 16 19 20 23 26 28 31
25 26 28 30 32 34 36 37 35 33 28 22 18 18 20 23 25 23 22 14 9 7 4 4 2 2 6 12 18 14 13 15 16 19 22 24 26 29
22 24 28 31 35 38 38 34 29 24 19 15 15 18 20 21 23 24 21 15 10 6 3 2 2 4 5 9 13 13 14 15 15 16 17 19 21 22
22 26 30 33 34 34 29 25 22 19 16 15 16 17 20 23 24 22 20 16 10 6 3 3 1 5 6 8 10 11 14 16 14 17 16 17 19 20
Wind_Direction
302 304 304 304 303 302 301 301 301 301 301 303 301 300 300 299 298 297 296 295 294 292 290 288 286 283 280 277 274 272 270 268 267 266 263 261 258 256
304 305 305 303 303 304 304 304 304 304 304 303 303 302 300 300 299 298 297 295 294 293 292 290 287 284 281 277 273 270 267 266 264 263 260 259 258 257
306 306 305 305 306 306 307 307 306 306 305 306 304 303 302 301 299 297 297 297 297 297 296 294 293 291 288 284 279 273 267 264 261 259 258 256 255 254
306 306 307 307 309 309 309 309 309 308 307 308 308 305 303 302 300 300 299 299 299 300 300 296 296 297 295 294 290 286 280 270 261 257 254 254 253 253
307 308 310 312 312 311 311 312 312 311 310 309 307 307 307 304 303 302 301 301 301 300 297 298 298 298 298 297 296 295 289 278 269 263 259 255 253 251
309 312 315 316 317 317 316 315 314 312 310 308 310 310 310 308 306 304 303 303 302 299 300 306 308 309 305 299 295 291 289 284 278 272 267 265 262 258
313 314 316 318 319 319 318 316 314 310 309 311 312 314 312 311 310 310 310 309 309 306 308 312 309 306 304 307 307 305 299 287 278 273 271 270 270 267
314 316 318 321 320 319 318 315 313 313 312 315 317 314 313 313 314 317 318 316 309 307 317 319 308 311 307 304 296 297 303 306 287 265 260 258 263 267
317 317 320 320 320 319 315 314 314 311 315 318 317 316 319 319 320 324 323 326 322 318 321 325 311 314 312 305 302 300 300 302 294 275 263 260 258 262
318 320 320 320 319 315 313 316 313 314 316 316 318 318 319 321 325 331 331 332 329 326 329 335 321 326 317 308 315 314 302 302 291 289 269 263 258 253
321 320 320 319 316 314 316 316 315 314 313 317 318 320 323 324 327 329 331 335 338 332 331 336 329 339 325 327 325 317 316 312 301 289 279 272 266 261
322 319 318 316 315 317 317 317 316 313 314 315 314 315 318 322 325 327 331 335 339 342 334 343 337 341 339 325 331 341 340 338 312 305 297 292 290 283
321 319 316 316 317 316 317 316 316 316 317 315 315 315 316 320 322 322 327 330 335 344 342 347 350 349 354 4 357 349 343 335 326 313 300 282 292 293
319 316 317 318 316 317 316 316 319 320 319 317 314 314 317 318 323 323 323 325 329 342 345 349 355 3 12 4 353 344 336 329 326 319 312 297 299 288
318 317 320 318 317 319 317 318 319 317 315 312 314 314 316 320 326 330 326 325 328 340 345 348 360 17 8 355 359 357 351 346 339 328 307 318 306 297
318 320 319 318 319 318 317 318 319 318 319 319 319 317 320 324 327 328 329 323 325 331 344 349 7 21 6 356 359 1 356 4 5 8 360 350 336 324
321 323 319 321 319 318 320 322 324 324 324 323 322 322 321 321 321 326 332 326 323 332 344 348 13 25 15 8 359 351 12 27 25 31 27 14 15 22
323 323 320 319 319 321 322 323 323 322 321 321 320 322 321 322 323 323 327 331 319 331 346 343 359 26 16 10 14 16 43 37 31 38 44 42 50 65
323 325 323 325 327 326 323 322 321 320 319 319 322 324 325 326 326 327 326 328 317 327 341 336 323 29 24 18 15 26 52 48 45 51 65 62 67 76
327 330 330 330 330 328 326 323 321 319 321 322 324 327 330 333 332 329 327 326 315 318 322 327 281 51 39 15 25 42 67 63 62 66 83 78 78 80
331 334 335 335 332 329 325 323 322 322 328 331 334 340 347 347 346 343 337 331 316 306 301 329 241 124 62 28 29 60 79 84 75 77 80 83 79 77
339 344 343 341 337 332 332 336 339 344 351 0 358 357 354 352 350 349 349 343 332 318 325 265 204 154 92 45 33 66 70 109 100 93 90 92 91 90
352 350 350 347 344 346 356 3 9 18 19 13 11 2 355 353 351 349 352 355 344 334 316 203 155 165 109 73 70 67 78 79 127 114 109 97 92 97